Location: Bun
(42.9667°N, 0.1500°W)
Time: 03:27:53
(UTC+00:00)

COSMOS 2428 - Pass Details

Date: 03 February 2023
Orbit: 843 x 858 km, 70.9° (Epoch: 26 March)

Event Time Altitude Azimuth Distance (km) Brightness Sun altitude
Rises 18:25:56 0° 158° (SSE) 3,389 5.7 -13.2°
Reaches altitude 10° 18:29:08 10° 140° (SE) 2,458 4.8 -13.8°
Enters shadow 18:32:22 18° 105° (ESE) 1,968 4.1 -14.3°
